User: anonymous   Login
Location: Enborne
(51.3833°N, 1.3667°W)
Time: 23:30:15
(UTC+00:00)
Language:

SL-14 R/B - Orbit

View from above orbital plane
View from above orbital plane
View from above satellite
View from above satellite

Ground track
Ground track

The orbit data is extracted from the following two-line orbital elements,

1 33505U 09003B   21127.45882240  .00000283  00000-0  15459-4 0  9995
2 33505  82.3921 269.9877 0024381 348.2646  11.8011 15.10055310675104
Epoch (UTC): 07 May 2021 11:00:42
Eccentricity: 0.0024381
inclination: 82.3921°
perigee height: 519 km
apogee height: 553 km
right ascension of ascending node: 269.9877°
argument of perigee: 348.2646°
revolutions per day: 15.10055310
mean anomaly at epoch: 11.8011°
orbit number at epoch: 67510

The dashed part of the orbit path shows where the satellite is in the earth's shadow,  

DLR